Weather History for EGLC - August, 2013

Change the Weather History Date:

Saturday, August 24, 2013

  Actual Average Record
Temperature  
Mean Temperature 64 °F -  
Max Temperature 68 °F 67 °F 82 °F (2001)
Min Temperature 59 °F 57 °F 50 °F (2014)
Degree Days  
Heating Degree Days 1    
Growing Degree Days 14 (Base 50)    
Moisture  
Dew Point 61 °F    
Average Humidity 89    
Maximum Humidity 94    
Minimum Humidity 78    
Precipitation  
Precipitation 0.00 in - - ()
Sea Level Pressure  
Sea Level Pressure 29.83 in    
Wind  
Wind Speed 6 mph ()    
Max Wind Speed 14 mph    
Max Gust Speed -    
Visibility 3.2 miles    
Events Rain , Hail    
Averages and records for this station are not official NWS values.
T = Trace of Precipitation, MM = Missing Value Source: Averaged Metar Reports

Daily Weather History Graph

Daily Weather History Graph

Search for Another Location

Airport or City:

Trip Planner

Search our weather history database for the weather conditions in past years. The results will help you decide how hot, cold, wet, or windy it might be!

Date:

Astronomy

Aug. 24, 2013 Rise Set
Actual Time 5:59 AM BST 8:03 PM BST
Civil Twilight 5:23 AM BST 8:39 PM BST
Nautical Twilight 4:38 AM BST 9:23 PM BST
Astronomical Twilight 3:47 AM BST 10:14 PM BST
Moon 9:12 PM BST (8/24) 10:17 AM BST (8/24)
Length of Visible Light 15h 15m
Length of Day
14h 03m
Waning Gibbous, 86% of the Moon is Illuminated
Aug 24
Waning Gibbous
Aug 28
Last Quarter
Sep 5
New
Sep 12
First Quarter
Sep 19
Full

Hourly Weather History & Observations

Time (BST) Temp. Dew Point Humidity Pressure Visibility Wind Dir Wind Speed Gust Speed Precip Events Conditions
12:20 AM 68.0 °F 60.8 °F 78% 29.86 in - ENE 5.8 mph - N/A   Mist
12:50 AM 66.2 °F 60.8 °F 83% 29.86 in 2.5 mi ENE 6.9 mph - N/A   Mist
1:20 AM 66.2 °F 60.8 °F 83% 29.83 in - East 4.6 mph - N/A   Mist
1:50 AM 66.2 °F 60.8 °F 83% 29.83 in 2.5 mi Variable 2.3 mph - N/A   Mist
2:20 AM 66.2 °F 60.8 °F 83% 29.83 in 2.5 mi Variable 2.3 mph - N/A   Mist
2:50 AM 66.2 °F 60.8 °F 83% 29.83 in - Variable 2.3 mph - N/A   Mist
3:20 AM 66.2 °F 60.8 °F 83% 29.83 in - SSW 5.8 mph - N/A   Mist
3:50 AM 66.2 °F 62.6 °F 88% 29.83 in 1.6 mi WSW 9.2 mph - N/A Rain Rain
4:20 AM 66.2 °F 62.6 °F 88% 29.83 in 1.4 mi SW 8.1 mph - N/A Rain Light Rain
4:50 AM 66.2 °F 62.6 °F 88% 29.80 in 1.3 mi West 8.1 mph - N/A Rain Light Rain
5:20 AM 64.4 °F 62.6 °F 94% 29.83 in 1.1 mi West 5.8 mph - N/A Rain Light Rain
5:50 AM 64.4 °F 62.6 °F 94% 29.83 in 1.1 mi West 6.9 mph - N/A Rain Light Rain
6:20 AM 64.4 °F 62.6 °F 94% 29.83 in 1.3 mi West 4.6 mph - N/A Rain Light Rain
6:50 AM 64.4 °F 62.6 °F 94% 29.83 in 1.1 mi Variable 3.5 mph - N/A Rain Light Rain
7:20 AM 64.4 °F 62.6 °F 94% 29.80 in 1.1 mi NNW 4.6 mph - N/A Rain Light Rain
7:50 AM 64.4 °F 62.6 °F 94% 29.80 in 1.1 mi WNW 4.6 mph - N/A Rain Light Rain
8:20 AM 64.4 °F 62.6 °F 94% 29.80 in 1.2 mi WNW 6.9 mph - N/A Rain Light Rain
8:50 AM 64.4 °F 60.8 °F 88% 29.83 in 1.6 mi WNW 8.1 mph - N/A Rain Light Rain
9:20 AM 64.4 °F 60.8 °F 88% 29.83 in 1.8 mi NW 5.8 mph - N/A Rain Light Rain
9:50 AM 64.4 °F 60.8 °F 88% 29.83 in 1.9 mi North 5.8 mph - N/A Rain Light Rain
10:20 AM 64.4 °F 60.8 °F 88% 29.83 in 1.6 mi NNW 4.6 mph - N/A Rain Light Rain
10:50 AM 64.4 °F 62.6 °F 94% 29.83 in 1.8 mi NNW 6.9 mph - N/A Rain Light Rain
11:20 AM 64.4 °F 62.6 °F 94% 29.83 in 2.5 mi NNW 5.8 mph - N/A Rain Light Rain
11:50 AM 66.2 °F 62.6 °F 88% 29.83 in 3.1 mi NW 5.8 mph - N/A Rain Light Rain
12:20 PM 66.2 °F 62.6 °F 88% 29.83 in 3.7 mi NW 6.9 mph - N/A Rain Light Rain
12:50 PM 66.2 °F 62.6 °F 88% 29.83 in 3.7 mi NW 6.9 mph - N/A Rain Light Rain
1:20 PM 64.4 °F 60.8 °F 88% 29.83 in 3.1 mi NW 8.1 mph - N/A Hail Hail
1:50 PM 66.2 °F 62.6 °F 88% 29.83 in 3.7 mi NW 6.9 mph - N/A Rain Light Rain
2:20 PM 66.2 °F 62.6 °F 88% 29.83 in 4.3 mi NW 8.1 mph - N/A   Mostly Cloudy
2:50 PM 64.4 °F 60.8 °F 88% 29.83 in - NW 13.8 mph - N/A Rain Heavy Rain Showers
3:20 PM 64.4 °F 62.6 °F 94% 29.83 in 2.8 mi NW 8.1 mph - N/A Rain Heavy Rain Showers
3:50 PM 64.4 °F 60.8 °F 88% 29.83 in 5.0 mi WNW 13.8 mph - N/A Rain Heavy Rain
4:20 PM 64.4 °F 62.6 °F 94% 29.83 in 5.0 mi WNW 9.2 mph - N/A Rain Rain
4:50 PM 64.4 °F 62.6 °F 94% 29.83 in 5.0 mi NW 11.5 mph - N/A Rain Rain
5:20 PM 64.4 °F 62.6 °F 94% 29.83 in 3.1 mi WNW 10.4 mph - N/A Rain Rain
5:50 PM 64.4 °F 62.6 °F 94% 29.83 in 3.1 mi WNW 11.5 mph - N/A Rain Rain
6:20 PM 64.4 °F 60.8 °F 88% 29.83 in 4.3 mi WNW 13.8 mph - N/A Rain Light Rain
6:50 PM 64.4 °F 60.8 °F 88% 29.83 in 6.2 mi NW 10.4 mph - N/A Rain Rain
7:20 PM 62.6 °F 60.8 °F 94% 29.86 in 4.3 mi NW 11.5 mph - N/A Rain Rain
7:50 PM 62.6 °F 60.8 °F 94% 29.86 in 5.0 mi NW 8.1 mph - N/A Rain Rain
8:20 PM 62.6 °F 60.8 °F 94% 29.86 in 4.3 mi NW 8.1 mph - N/A Rain Heavy Rain
8:50 PM 62.6 °F 60.8 °F 94% 29.86 in 5.0 mi NW 10.4 mph - N/A Rain Light Rain
9:20 PM 62.6 °F 59.0 °F 88% 29.86 in 3.7 mi NW 10.4 mph - N/A Rain Light Rain
9:50 PM 60.8 °F 57.2 °F 88% 29.86 in 3.7 mi NW 13.8 mph - N/A Rain Rain
10:20 PM 60.8 °F 57.2 °F 88% 29.86 in 6.2 mi NW 13.8 mph - N/A Rain Light Rain
10:50 PM 60.8 °F 57.2 °F 88% 29.86 in 6.2 mi WNW 12.7 mph - N/A   Light Drizzle
11:20 PM 60.8 °F 55.4 °F 82% 29.86 in 6.2 mi NW 13.8 mph - N/A Rain Light Rain
11:50 PM 59.0 °F 55.4 °F 88% 29.86 in 6.2 mi NW 10.4 mph - N/A Rain Light Rain